This is the latest recevied weather packets stored in our database for station/object KC9MWQ-13. If no packets are shown the sender has not sent any weather packets the latest 10 day(s).
| Time | Temp. | Humidity | Pressure | Rain* | Wind** | Luminosity | Snow |
|---|---|---|---|---|---|---|---|
| 1777984800 | 13.89° C | 98% | 1008.2 hPa | 0 mm | - | 17 W/m² | - |
| 1777984496 | 13.89° C | 98% | 1008.2 hPa | 0 mm | - | 24 W/m² | - |
| 1777984193 | 13.89° C | 98% | 1007.7 hPa | 0 mm | - | 47 W/m² | - |
| 1777983890 | 13.89° C | 97% | 1007.7 hPa | 0 mm | - | 48 W/m² | - |
| 1777983587 | 13.89° C | 97% | 1007.8 hPa | 0 mm | - | 79 W/m² | - |
| 1777983284 | 13.89° C | 97% | 1007.1 hPa | 0 mm | - | 139 W/m² | - |
| 1777982979 | 13.89° C | 97% | 1007 hPa | 0 mm | - | 115 W/m² | - |
| 1777982676 | 13.89° C | 97% | 1006.9 hPa | 0 mm | - | 87 W/m² | - |
| 1777982375 | 13.89° C | 97% | 1006.8 hPa | 0 mm | - | 99 W/m² | - |
| 1777982072 | 13.89° C | 97% | 1006.9 hPa | 0 mm | - | 113 W/m² | - |
| 1777981770 | 13.33° C | 98% | 1007.1 hPa | 0 mm | - | 104 W/m² | - |
| 1777981466 | 13.33° C | 98% | 1007.4 hPa | 0 mm | - | 74 W/m² | - |
| 1777981162 | 13.33° C | 98% | 1007.6 hPa | 0 mm | - | 63 W/m² | - |
| 1777980859 | 13.33° C | 98% | 1007.7 hPa | 0 mm | - | 57 W/m² | - |
| 1777980555 | 13.33° C | 98% | 1008 hPa | 0 mm | - | 56 W/m² | - |
| 1777980253 | 12.78° C | 98% | 1007.6 hPa | 0 mm | - | 51 W/m² | - |
| 1777979949 | 12.78° C | 99% | 1007.7 hPa | 0 mm | - | 46 W/m² | - |
| 1777979643 | 12.78° C | 99% | 1007.4 hPa | 0 mm | - | 31 W/m² | - |
| 1777979340 | 12.78° C | 99% | 1007.1 hPa | 0 mm | - | 23 W/m² | - |
| 1777979037 | 12.78° C | 99% | 1007.3 hPa | 0 mm | - | 16 W/m² | - |
| 1777978734 | 12.78° C | 99% | 1007.1 hPa | 0 mm | - | 10 W/m² | - |
| 1777978430 | 12.78° C | 99% | 1006.9 hPa | 0 mm | - | 7 W/m² | - |
| 1777978126 | 12.22° C | 99% | 1006.9 hPa | 0 mm | - | 4 W/m² | - |
| 1777977824 | 12.22° C | 99% | 1006.8 hPa | 0 mm | - | 3 W/m² | - |
| 1777977520 | 12.22° C | 99% | 1006.8 hPa | 0 mm | - | 1 W/m² | - |
* Rain latest hour (hover to see other rain measurements)
** Current wind speed in m/s (hover to see current wind gust speed)